Location: Unspecified
(0.0000°N, 0.0000°E)
Time: 11:12:28
(UTC+02:00)

CZ-4B DEB - Visible Passes

Search period start: 23 July 2016 00:00
Search period end: 02 August 2016 00:00
Orbit: 429 x 439 km, 97.4° (Epoch: 22 July)

Date Brightness Start Highest point End Pass type
(mag) Time Alt. Az. Time Alt. Az. Time Alt. Az.
23 Jul 4.5 21:56:24 33° NW 21:56:24 33° NW 21:58:34 10° NNW visible
24 Jul 4.0 21:16:17 26° ENE 21:16:17 26° ENE 21:18:36 10° NNE visible
25 Jul 5.4 22:09:28 21° WNW 22:09:28 21° WNW 22:11:01 10° NW visible
26 Jul 3.6 21:29:17 38° NE 21:29:17 38° NE 21:31:40 10° N visible
27 Jul 6.1 22:22:24 13° WNW 22:22:24 13° WNW 22:23:02 10° WNW visible
28 Jul 3.8 21:42:09 41° N 21:42:09 41° N 21:44:23 10° N visible
29 Jul 4.7 21:01:54 15° ENE 21:01:54 15° ENE 21:03:20 10° NE visible
30 Jul 4.6 21:54:56 30° NW 21:54:56 30° NW 21:56:49 10° NNW visible
31 Jul 4.3 21:14:37 22° NE 21:14:37 22° NE 21:16:29 10° NNE visible
01 Aug 5.5 22:07:35 20° NW 22:07:35 20° NW 22:08:55 10° NW visible
